This demonstration page uses our WeatherBlox Daily Observations layout. Learn more.

Left ArrowRight Arrow

40.92945, -100.16068

Hourly Observations for December 18, 2020

Temp ( °F °C ) Dew Point ( °F °C ) Humidity (%) Winds ( mph kmh ) Pressure ( in mb ) Visibility ( mi km ) Precip ( " mm )
12:15 am 00:15 Clear 36 2.4 27 -2.7 69 69 SE 13 20 29.85 1011 10 16.0934 0 0
12:35 am 00:35 Mostly Cloudy 37 2.5 28 -2.3 71 71 SSE 15 24 29.84 1011 10 16.0934 0 0
12:55 am 00:55 Mostly Cloudy 37 2.5 28 -2.4 70 70 SSE 17 28 29.84 1011 10 16.0934 0 0
1:15 am 01:15 Partly Cloudy 37 2.8 27 -2.6 68 68 SE 12 19 29.84 1010 10 16.0934 0 0
1:35 am 01:35 Clear 37 2.6 27 -2.6 69 69 SSE 13 20 29.83 1010 10 16.0934 0 0
1:55 am 01:55 Clear 36 2.1 28 -2.3 73 73 SSE 14 22 29.84 1010 10 16.0934 0 0
2:15 am 02:15 Partly Cloudy 35 1.9 28 -2.2 75 75 SSE 15 24 29.84 1010 10 16.0934 0 0
2:35 am 02:35 Partly Cloudy 35 1.7 28 -2.1 76 76 SSE 10 17 29.84 1010 10 16.0934 0 0
2:55 am 02:55 Clear 35 1.6 28 -2.1 77 77 SSE 15 24 29.82 1010 10 16.0934 0 0
3:15 am 03:15 Clear 35 1.4 28 -2 78 78 S 12 19 29.84 1011 10 16.0934 0 0
3:35 am 03:35 Clear 35 1.4 28 -2 78 78 S 12 19 29.83 1010 10 16.0934 0 0
3:55 am 03:55 Clear 34 1.2 28 -2 79 79 SSE 9 15 29.83 1010 10 16.0934 0 0
4:15 am 04:15 Clear 34 1.3 28 -2 79 79 SSE 8 13 29.81 1010 10 16.0934 0 0
4:35 am 04:35 Clear 34 1.1 28 -2.1 79 79 SE 9 15 29.82 1010 10 16.0934 0 0
4:55 am 04:55 Clear 33 0.8 28 -2.2 81 81 SE 3 6 29.83 1010 10 16.0934 0 0
5:15 am 05:15 Clear 33 0.8 28 -2.2 81 81 Calm 29.83 1010 10 16.0934 0 0
5:35 am 05:35 Clear 30 -0.9 27 -2.7 88 88 NNE 5 7 29.85 1011 10 16.0934 0 0
5:55 am 05:55 Clear 29 -1.5 26 -3.2 88 88 N 7 11 29.85 1011 10 16.0934 0 0
6:15 am 06:15 Clear 27 -3 24 -4.3 91 91 ENE 6 9 29.86 1011 10 16.0934 0 0
6:35 am 06:35 Clear 24 -4.2 23 -5.1 94 94 Calm 29.89 1012 10 16.0934 0 0
6:55 am 06:55 Clear 22 -5.8 20 -6.8 93 93 N 3 6 29.91 1013 7 11.26538 0 0
7:15 am 07:15 Clear 19 -7 18 -7.7 95 95 N 5 7 29.93 1013 7 11.26538 0 0
7:35 am 07:35 Clear 18 -7.9 16 -8.9 93 93 NW 7 11 29.95 1014 7 11.26538 0 0
7:55 am 07:55 Clear 20 -6.5 19 -7.4 93 93 WNW 7 11 29.93 1014 7 11.26538 0 0
8:15 am 08:15 Sunny 20 -6.7 18 -7.7 93 93 WNW 8 13 29.93 1014 10 16.0934 0 0
8:35 am 08:35 Sunny 21 -6.3 19 -7.5 91 91 WNW 8 13 29.93 1014 10 16.0934 0 0
8:55 am 08:55 Sunny 23 -5.2 21 -6.1 93 93 WNW 6 9 29.93 1013 10 16.0934 0 0
9:15 am 09:15 Sunny 23 -5.1 21 -6.1 93 93 WNW 6 9 29.94 1014 10 16.0934 0 0
9:35 am 09:35 Sunny 27 -3 24 -4.7 88 88 WNW 13 20 29.94 1014 10 16.0934 0 0
9:55 am 09:55 Sunny 28 -2.3 24 -4.6 84 84 WNW 13 20 29.93 1014 10 16.0934 0 0
10:15 am 10:15 Sunny 29 -1.6 24 -4.5 81 81 WNW 17 28 29.94 1014 10 16.0934 0 0
10:35 am 10:35 Sunny 31 -0.4 26 -3.6 79 79 WNW 18 30 29.93 1014 10 16.0934 0 0
10:55 am 10:55 Sunny 33 0.3 27 -2.8 80 80 NW 15 24 29.92 1013 10 16.0934 0 0
11:15 am 11:15 Sunny 36 2.1 29 -1.9 75 75 NW 13 20 29.92 1013 10 16.0934 0 0
11:35 am 11:35 Sunny 39 3.7 30 -1 72 72 NNW 12 19 29.89 1012 10 16.0934 0 0
11:55 am 11:55 Sunny 40 4.7 31 -0.7 68 68 NNW 12 19 29.89 1012 10 16.0934 0 0
12:15 pm 12:15 Sunny 41 4.8 31 -0.8 67 67 NNW 16 26 29.89 1012 10 16.0934 0 0
12:35 pm 12:35 Sunny 41 5 31 -0.6 67 67 NNW 17 28 29.9 1012 10 16.0934 0 0
12:55 pm 12:55 Sunny 41 4.8 31 -0.4 69 69 NNW 16 26 29.9 1013 10 16.0934 0 0
1:15 pm 13:15 Sunny 41 5 32 -0.2 69 69 NNW 17 28 29.91 1013 10 16.0934 0 0
1:35 pm 13:35 Sunny 41 5.2 32 -0.2 68 68 NNW 20 31 29.92 1013 10 16.0934 0 0
1:55 pm 13:55 Sunny 42 5.5 32 -0.2 67 67 NNW 17 28 29.93 1014 10 16.0934 0 0
2:15 pm 14:15 Partly Cloudy 42 5.7 32 -0.2 66 66 NNW 15 24 29.93 1014 10 16.0934 0 0
2:35 pm 14:35 Partly Cloudy 42 5.7 31 -0.5 65 65 NNW 17 28 29.94 1014 10 16.0934 0 0
2:55 pm 14:55 Partly Cloudy 43 6 31 -0.6 63 63 NNW 14 22 29.95 1014 10 16.0934 0 0
3:15 pm 15:15 Mostly Cloudy 42 5.5 31 -0.8 64 64 NNW 14 22 29.97 1015 10 16.0934 0 0
3:35 pm 15:35 Cloudy 41 4.9 31 -0.6 68 68 NNW 9 15 29.99 1016 10 16.0934 0 0
3:55 pm 15:55 Cloudy 40 4.5 31 -0.5 70 70 NW 6 9 30 1016 10 16.0934 0 0
4:15 pm 16:15 Cloudy 40 4.5 31 -0.3 71 71 NW 13 20 30.02 1017 10 16.0934 0 0
4:35 pm 16:35 Cloudy 40 4.5 31 -0.5 70 70 NW 15 24 30.04 1017 10 16.0934 0 0
4:55 pm 16:55 Mostly Cloudy 39 4.1 31 -0.5 72 72 NW 12 19 30.05 1017 10 16.0934 0 0
5:15 pm 17:15 Mostly Cloudy 38 3.3 31 -0.3 78 78 NW 10 17 30.08 1019 10 16.0934 0 0
5:35 pm 17:35 Cloudy 38 3.1 31 -0.5 77 77 NW 8 13 30.11 1020 10 16.0934 0 0
5:55 pm 17:55 Partly Cloudy 37 2.5 31 -0.6 80 80 NW 6 9 30.11 1020 10 16.0934 0 0
6:15 pm 18:15 Partly Cloudy 35 1.7 31 -0.6 85 85 NW 8 13 30.13 1020 10 16.0934 0 0
6:35 pm 18:35 Mostly Cloudy 35 1.7 31 -0.7 84 84 NW 9 15 30.14 1021 10 16.0934 0 0
6:55 pm 18:55 Partly Cloudy 34 1.1 30 -1 86 86 NW 7 11 30.16 1021 10 16.0934 0 0
7:15 pm 19:15 Clear 33 0.7 29 -1.5 85 85 NW 10 17 30.17 1022 10 16.0934 0 0
7:35 pm 19:35 Clear 32 0.2 28 -2 85 85 NNW 9 15 30.19 1022 10 16.0934 0 0
7:55 pm 19:55 Clear 32 0 28 -2.2 85 85 NNW 10 17 30.2 1023 10 16.0934 0 0
8:15 pm 20:15 Clear 32 0 28 -2.5 83 83 NNW 9 15 30.21 1023 10 16.0934 0 0
8:35 pm 20:35 Clear 32 0 27 -2.7 82 82 NNW 10 17 30.22 1023 10 16.0934 0 0
8:55 pm 20:55 Clear 31 -0.3 26 -3.2 81 81 NNW 10 17 30.22 1023 10 16.0934 0 0
9:15 pm 21:15 Clear 31 -0.8 26 -3.5 82 82 NNW 8 13 30.24 1024 10 16.0934 0 0
9:35 pm 21:35 Clear 28 -2.1 24 -4.3 85 85 WNW 6 9 30.25 1024 10 16.0934 0 0
9:55 pm 21:55 Clear 26 -3.5 23 -5.1 89 89 NW 12 19 30.26 1025 10 16.0934 0 0
10:15 pm 22:15 Clear 26 -3.3 22 -5.3 86 86 WNW 7 11 30.26 1025 10 16.0934 0 0
10:35 pm 22:35 Clear 25 -4 22 -5.4 90 90 W 6 9 30.27 1025 10 16.0934 0 0
10:55 pm 22:55 Clear 25 -3.9 22 -5.5 89 89 WNW 7 11 30.28 1025 10 16.0934 0 0
11:15 pm 23:15 Clear 24 -4.4 21 -6 89 89 W 10 17 30.29 1026 10 16.0934 0 0
11:35 pm 23:35 Clear 25 -3.8 22 -5.8 86 86 W 7 11 30.29 1026 10 16.0934 0 0
11:55 pm 23:55 Clear 23 -4.9 20 -6.5 89 89 W 8 13 30.3 1026 10 16.0934 0 0

Powered by AerisWeather